Flag for U.S.A. Weather past 2 weeks in Independence, Missouri, U.S.A.

Now
44 °F

Overcast.


Feels Like: 39 °F
Forecast: 35 / 42 °F
Wind: 9 mph from Southwest

Location: Lee's Summit Municipal Airport

Current Time: Dec 22, 2014 at 9:04:16 PM

Latest Report: Dec 22, 2014 at 7:53 PM


Visibility: 10 mi

Pressure: 29.53 "Hg

Humidity: 85%

Dew point: 40 °F

Location of IndependenceLocation

Historic Weather in Independence — Graph

°F

Independence temperature yesterday

Maximum temperature yesterday: 46 °F (at 1:53 PM)
Minimum temperature yesterday: 35 °F (at 12:53 AM)
Average temperature yesterday: 41 °F

Past Weeks' High & Low Weather Summary

 TemperatureHumidityPressure
High63 °F (Dec 14, 2:53 PM)100% (Dec 19, 11:03 PM)30.48 "Hg (Dec 19, 11:03 PM)
Low23 °F (Dec 17, 7:53 AM)48% (Dec 8, 2:53 PM)29.45 "Hg (Dec 22, 2:53 PM)
Average39 °F85%30.14 "Hg
* Reported Dec 7 7:53 PM — Dec 22 7:53 PM, Independence, Weather by CustomWeather, © 2014

Note: Actual official high and low records may vary slightly from our data, if they occured in-between our weather recording intervals... More about our weather records

Advertising

Independence weather history for previous 24 hours

 ConditionsComfort  
Time TempWeatherWind HumidityBarometerVisibility
7:53 PM
Dec 22
44 °FOvercast.9 mph85%29.53 "Hg10 mi
6:53 PM44 °FPartly cloudy.6 mph85%29.51 "Hg10 mi
5:53 PM45 °FPassing clouds.10 mph82%29.49 "Hg10 mi
4:53 PM46 °FCloudy.8 mph93%29.46 "Hg10 mi
3:53 PM46 °FMostly cloudy.7 mph93%29.45 "Hg9 mi
2:53 PM45 °FLight rain. Fog.6 mph97%29.45 "Hg4 mi
1:53 PM45 °FLow clouds.6 mph93%29.46 "Hg8 mi
12:53 PM44 °FLight rain. Fog.7 mph96%29.49 "Hg4 mi
11:53 AM44 °FFog.9 mph93%29.53 "Hg6 mi
10:53 AM43 °FLow clouds.10 mph93%29.57 "Hg9 mi
9:53 AM42 °FLight rain. Fog.9 mph92%29.59 "Hg6 mi
8:53 AM42 °FLight rain. Fog.9 mph92%29.60 "Hg6 mi
7:53 AM42 °FLow clouds.8 mph92%29.62 "Hg9 mi
6:53 AM42 °FLight rain. Low clouds.8 mph92%29.63 "Hg7 mi
5:53 AM41 °FFog.9 mph96%29.64 "Hg6 mi
4:53 AM41 °FFog.7 mph93%29.65 "Hg6 mi
3:53 AM41 °FMostly cloudy.8 mph89%29.67 "Hg9 mi
2:53 AM42 °FOvercast.6 mph82%29.70 "Hg10 mi
1:53 AM42 °FMostly cloudy.9 mph82%29.71 "Hg10 mi
12:53 AM42 °FOvercast.8 mph82%29.74 "Hg10 mi
11:53 PM
Dec 21
42 °FOvercast.10 mph82%29.77 "Hg8 mi
10:53 PM42 °FOvercast.10 mph82%29.79 "Hg10 mi
9:53 PM43 °FMostly cloudy.10 mph79%29.80 "Hg10 mi
Weather by CustomWeather, © 2014

See weather overviewHow to use our weather pages